Home   Weather   Wodonga   Past weeks
Flag for Australia

Past Weather in Wodonga, Victoria, Australia — Yesterday and Last 2 Weeks

Now
73 °F

Mild.


Feels Like: 77 °F
Forecast: 89 / 55 °F
Wind: 7 mph from Southeast

Location: Albury Aeroport Aws

Current Time: Feb 23, 2019 at 1:38:17 am

Latest Report: Feb 23, 2019 at 12:00 am


Visibility: N/A

Pressure: 30.09 "Hg

Humidity: 37%

Dew Point: 46 °F

Location of WodongaLocation

Past Weather in Wodonga — Graph

°F

Wodonga Temperature Yesterday

Maximum temperature yesterday: 90 °F (at 6:00 pm)
Minimum temperature yesterday: 63 °F (at 7:00 am)
Average temperature yesterday: 76 °F

High & Low Weather Summary for the Past Weeks

 TemperatureHumidityPressure
High97 °F (Feb 17, 4:00 pm)87% (Feb 20, 7:00 am)30.19 "Hg (Feb 20, 7:00 am)
Low48 °F (Feb 14, 7:00 am)13% (Feb 17, 4:00 pm)29.38 "Hg (Feb 12, 3:00 pm)
Average71 °F46%29.82 "Hg
* Reported Feb 8 12:00 am — Feb 23 12:00 am, Wodonga. Weather by CustomWeather, © 2019

Note: Actual official high and low records may vary slightly from our data, if they occured in-between our weather recording intervals... More about our weather records

Advertising

Wodonga Weather History for the Previous 24 Hours

Scroll right to see more
 ConditionsComfort  
Time TempWeatherWind HumidityBarometerVisibility
12:00 am
Sat, Feb 23
73 °FMild.7 mph37%30.09 "HgN/A
10:00 pm
Fri, Feb 22
79 °FPleasantly warm.8 mph30%30.05 "HgN/A
9:00 pm80 °FPleasantly warm.5 mph31%30.03 "HgN/A
7:00 pm88 °FHot.3 mph20%29.99 "HgN/A
6:00 pm90 °FHot.6 mph20%29.99 "HgN/A
4:00 pm89 °FHot.7 mph25%30.01 "HgN/A
3:00 pm87 °FPleasantly warm.6 mph28%30.03 "HgN/A
1:00 pm83 °FPleasantly warm.5 mph31%30.09 "HgN/A
12:00 pm80 °FPleasantly warm.6 mph30%30.11 "HgN/A
10:00 am72 °FMild.8 mph40%30.13 "HgN/A
9:00 am68 °FMild.8 mph47%30.13 "HgN/A
7:00 am63 °FMild.6 mph57%30.08 "HgN/A
6:00 am63 °FMild.5 mph57%30.06 "HgN/A
4:00 am65 °FMild.3 mph53%30.05 "HgN/A
3:00 am67 °FMild.6 mph50%30.04 "HgN/A
1:00 am70 °FMild.6 mph46%30.02 "HgN/A
Weather by CustomWeather, © 2019

See weather overview